Location: Strada George Coșbuc
(47.6577°N, 23.5639°E)
Time: 05:07:30
(UTC+03:00)

X-37B - Visible Passes

Search period start: 04 August 2021 00:00
Search period end: 14 August 2021 00:00
Orbit: 383 x 392 km, 45.0° (Epoch: 01 July)

Date Brightness Start Highest point End Pass type
(mag) Time Alt. Az. Time Alt. Az. Time Alt. Az.
04 Aug 3.2 03:43:42 12° SE 03:43:42 12° SE 03:44:24 10° ESE visible
04 Aug 1.3 05:15:59 11° SW 05:18:46 39° SSE 05:21:48 10° E visible
05 Aug 1.7 04:20:06 28° S 04:20:32 29° SSE 04:23:22 10° E visible
06 Aug 3.2 03:24:13 13° ESE 03:24:13 13° ESE 03:24:48 10° ESE visible
06 Aug 1.0 04:56:29 18° WSW 04:58:35 48° S 05:01:41 10° E visible
07 Aug 1.4 04:00:38 38° SSE 04:00:38 38° SSE 04:03:18 10° E visible
07 Aug 0.9 05:33:35 10° W 05:36:42 52° S 05:39:50 10° ESE visible
08 Aug 3.6 03:04:49 10° E 03:04:49 10° E 03:04:53 10° E visible
08 Aug 0.8 04:37:06 29° WSW 04:38:24 53° S 04:41:32 10° E visible
09 Aug 2.0 03:41:21 29° ESE 03:41:21 29° ESE 03:43:12 10° E visible
09 Aug 1.0 05:13:38 11° W 05:16:31 45° S 05:19:36 10° ESE visible
10 Aug 0.7 04:18:01 50° SSW 04:18:14 51° S 04:21:21 10° ESE visible
11 Aug 3.2 03:22:32 14° ESE 03:22:32 14° ESE 03:23:03 10° E visible
11 Aug 1.3 04:54:51 22° WSW 04:56:19 35° SSW 04:59:16 10° SE visible
12 Aug 2.3 03:59:37 23° SE 03:59:37 23° SE 04:01:07 10° ESE visible
12 Aug 2.3 05:32:01 10° WSW 05:34:14 18° SSW 05:36:28 10° SSE visible
13 Aug 2.1 04:37:03 21° S 04:37:03 21° S 04:38:45 10° SE visible
